Regional Weather Roundup
Issued by NWS Bismarck, ND

Home | Current Version | Previous Version | Text Only | Print | Product List | Glossary On
Versions: 1 2 3 4 5 6 7 8 9 10 11 12 13 14 15 16 17 18 19 20 21 22 23 24 25 26 27 28 29 30 31 32 33 34 35 36 37 38 39 40 41 42 43 44 45 46 47 48 49 50
000
ASUS43 KBIS 241602
RWRBIS

NWR BROADCAST TEXT
NATIONAL WEATHER SERVICE BISMARCK ND
1100 AM CDT TUE MAY 24 2016

NOTE: "FAIR" INDICATES FEW OR NO CLOUDS BELOW 12,000 FEET WITH NO
SIGNIFICANT WEATHER AND/OR OBSTRUCTIONS TO VISIBILITY.


CITY           SKY/WX    TMP DP  RH WIND       PRES   REMARKS
WILLISTON      PTSUNNY   59  42  53 W8        29.88S
MINOT          SUNNY     69  43  38 SW8       29.86S
MINOT AFB      SUNNY     67  44  43 S7        29.85S
BISMARCK       SUNNY     69  47  45 CALM      29.89S
DICKINSON      SUNNY     61  39  44 W9        29.90R
GARRISON         N/A     66  44  45 W12       29.89R
HETTINGER ARPT SUNNY     65  40  39 N3        29.93R
JAMESTOWN      SUNNY     69  49  48 S5        29.87R
CARRINGTON     FAIR      68  45  42 CALM      29.90R
HAZEN          FAIR      64  41  42 SW7       29.91S
MANDAN         FAIR      64  46  52 N8        29.91R
OAKES            N/A    N/A N/A N/A MISG        N/A
STANLEY        FAIR      61  43  51 SW17      29.90R
$$

CITY           SKY/WX    TMP DP  RH WIND       PRES   REMARKS
GRAND FORKS    MOSUNNY   71  54  54 W5        29.84R
GRAND FORKS AF SUNNY     69  53  57 N6        29.85R
DEVILS LAKE    SUNNY     69  45  41 SW7       29.88R
FARGO          SUNNY     79  47  32 S9        29.83R
CAVALIER       FAIR      68  48  49 N5        29.85R
GRAFTON        FAIR      70  50  49 NE5       29.86R
GWINNER        FAIR      75  48  38 E15       29.85S
LANGDON        FAIR      72  45  37 CALM      29.87R
$$

CITY           SKY/WX    TMP DP  RH WIND       PRES   REMARKS
ABERDEEN       SUNNY     74  51  44 E12G21    29.85F
MOBRIDGE       SUNNY     69  44  40 CALM      29.87S
BUFFALO          N/A     65  41  41 NE6       29.86S
RAPID CITY     SUNNY     64  41  42 E5        29.92F
GLASGOW        CLOUDY    54  43  66 W13       29.86R
SIDNEY         MOSUNNY   61  43  51 S12       29.88S
WOLF POINT     PTSUNNY   58  43  57 W10       29.87S
GLENDIVE       CLOUDY    59  43  55 SW13G18   29.92S
MILES CITY     MOSUNNY   56  40  55 SW3       29.91F
BAKER          SUNNY     59  39  47 W9        29.93S
$$

CITY           SKY/WX    TMP DP  RH WIND       PRES   REMARKS
BILLINGS       PTSUNNY   51  41  68 E6        29.92S
GREAT FALLS    CLOUDY    47  39  74 S5        29.92R
$$





USA.gov is the U.S. government's official web portal to all federal, state and local government web resources and services.